Location: Unnamed
(23.5608°S, 46.6833°W)
Time: 23:44:14
(UTC-03:00)

COSMOS 2251 DEB - Visible Passes

Search period start: 06 December 2023 00:00
Search period end: 16 December 2023 00:00
Orbit: 672 x 688 km, 74.0° (Epoch: 06 December)

Date Brightness Start Highest point End Pass type
(mag) Time Alt. Az. Time Alt. Az. Time Alt. Az.
06 Dec ? 19:38:32 10° SE 19:40:26 12° ESE 19:41:43 11° E visible
06 Dec ? 21:16:12 10° SSW 21:20:10 40° W 21:20:10 40° W visible
07 Dec ? 20:12:58 10° S 20:17:33 44° ESE 20:18:28 39° ENE visible
07 Dec ? 21:56:10 10° W 21:56:55 11° W 21:56:55 11° W visible
08 Dec ? 19:12:40 10° SE 19:14:01 11° ESE 19:15:22 10° E visible
08 Dec ? 20:49:45 10° SSW 20:54:19 46° WNW 20:55:15 40° NW visible
09 Dec ? 19:46:36 10° S 19:51:06 40° ESE 19:53:37 23° NE visible
09 Dec ? 21:29:04 10° WSW 21:30:48 12° W 21:32:04 11° WNW visible
10 Dec ? 20:23:13 10° SSW 20:27:51 51° WNW 20:30:29 24° NNW visible
11 Dec ? 19:20:10 10° S 19:24:35 36° ESE 19:28:55 10° NE visible
11 Dec ? 21:02:05 10° WSW 21:04:19 13° W 21:06:32 10° NW visible
12 Dec ? 19:56:38 10° SSW 20:01:19 56° WNW 20:05:52 11° N visible
13 Dec ? 20:35:09 10° WSW 20:37:46 15° W 20:40:22 10° NW visible
14 Dec ? 19:29:58 10° SSW 19:34:43 62° WNW 19:39:24 10° N visible
15 Dec ? 20:08:12 10° WSW 20:11:08 16° W 20:14:03 10° NW visible
